| time (UTC) | temp F | wind direction | speed MPH | gust MPH | rain 1hr in | rain 24hr in | rain mn in | humidity % | barometer mb |
| 20260506155016 | 56 | 45 | 4.0 | 6.0 | 0.00 | 0.01 | 0.01 | 79 | 1014.0 |
| 20260506154016 | 57 | 23 | 4.0 | 8.0 | 0.00 | 0.01 | 0.01 | 80 | 1013.9 |
| 20260506153016 | 57 | 23 | 3.0 | 6.0 | 0.00 | 0.01 | 0.01 | 80 | 1013.9 |
| 20260506152016 | 56 | 23 | 3.0 | 4.0 | 0.00 | 0.01 | 0.01 | 82 | 1013.8 |
| 20260506151016 | 55 | 23 | 5.0 | 8.0 | 0.00 | 0.01 | 0.01 | 83 | 1013.7 |
| 20260506150016 | 55 | 45 | 4.0 | 7.0 | 0.00 | 0.01 | 0.01 | 84 | 1013.2 |
| 20260506145017 | 55 | 23 | 5.0 | 9.0 | 0.00 | 0.01 | 0.01 | 85 | 1013.1 |
| 20260506144016 | 54 | 23 | 5.0 | 9.0 | 0.00 | 0.01 | 0.01 | 85 | 1013.7 |
| 20260506143016 | 54 | 23 | 4.0 | 8.0 | 0.00 | 0.01 | 0.01 | 86 | 1013.3 |
| 20260506142016 | 54 | 45 | 4.0 | 6.0 | 0.00 | 0.01 | 0.01 | 87 | 1013.1 |
| 20260506141016 | 53 | 45 | 4.0 | 7.0 | 0.00 | 0.01 | 0.01 | 88 | 1012.8 |
| 20260506140016 | 53 | 68 | 8.0 | 13.0 | 0.00 | 0.01 | 0.01 | 88 | 1012.7 |
| 20260506135016 | 53 | 45 | 7.0 | 13.0 | 0.00 | 0.01 | 0.01 | 87 | 1012.7 |
| 20260506134017 | 53 | 23 | 5.0 | 9.0 | 0.01 | 0.01 | 0.01 | 88 | 1012.9 |
| 20260506133016 | 53 | 23 | 4.0 | 8.0 | 0.01 | 0.01 | 0.01 | 87 | 1012.8 |
| 20260506132016 | 54 | 45 | 8.0 | 18.0 | 0.01 | 0.01 | 0.01 | 87 | 1012.4 |
| 20260506131016 | 54 | 45 | 7.0 | 17.0 | 0.01 | 0.01 | 0.01 | 87 | 1012.2 |
| 20260506130016 | 54 | 68 | 9.0 | 16.0 | 0.01 | 0.01 | 0.01 | 87 | 1012.2 |
| 20260506125016 | 54 | 68 | 13.0 | 18.0 | 0.01 | 0.01 | 0.01 | 85 | 1011.2 |
| 20260506124016 | 55 | 45 | 4.0 | 8.0 | 0.00 | 0.00 | 0.00 | 83 | 1013.4 |
| 20260506123016 | 55 | 68 | 13.0 | 17.0 | 0.00 | 0.00 | 0.00 | 80 | 1012.6 |
| 20260506122016 | 55 | 68 | 7.0 | 13.0 | 0.00 | 0.00 | 0.00 | 80 | 1012.6 |
| 20260506121016 | 56 | 23 | 4.0 | 6.0 | 0.00 | 0.00 | 0.00 | 79 | 1011.5 |
| 20260506120016 | 56 | 68 | 8.0 | 18.0 | 0.00 | 0.00 | 0.00 | 79 | 1010.6 |
| 20260506115016 | 56 | 23 | 3.0 | 9.0 | 0.00 | 0.00 | 0.00 | 78 | 1012.4 |
| 20260506114016 | 56 | 23 | 3.0 | 5.0 | 0.00 | 0.00 | 0.00 | 77 | 1012.5 |
| 20260506113016 | 56 | 45 | 7.0 | 13.0 | 0.00 | 0.00 | 0.00 | 77 | 1011.3 |
| 20260506112016 | 57 | 45 | 6.0 | 12.0 | 0.00 | 0.00 | 0.00 | 77 | 1010.9 |
| 20260506111016 | 57 | 45 | 6.0 | 11.0 | 0.00 | 0.00 | 0.00 | 77 | 1011.2 |
| 20260506110016 | 57 | 23 | 4.0 | 7.0 | 0.00 | 0.00 | 0.00 | 77 | 1011.1 |
| 20260506105017 | 57 | 45 | 4.0 | 7.0 | 0.00 | 0.00 | 0.00 | 77 | 1011.0 |
| 20260506104016 | 57 | 68 | 7.0 | 14.0 | 0.00 | 0.00 | 0.00 | 77 | 1010.6 |
| 20260506103016 | 57 | 68 | 12.0 | 16.0 | 0.00 | 0.00 | 0.00 | 76 | 1010.3 |
| 20260506102016 | 58 | 68 | 7.0 | 12.0 | 0.00 | 0.00 | 0.00 | 76 | 1010.7 |
| 20260506101016 | 58 | 45 | 5.0 | 11.0 | 0.00 | 0.00 | 0.00 | 75 | 1010.7 |
| 20260506100016 | 58 | 45 | 5.0 | 9.0 | 0.00 | 0.00 | 0.00 | 75 | 1010.3 |
| 20260506095016 | 59 | 45 | 6.0 | 13.0 | 0.00 | 0.00 | 0.00 | 74 | 1010.0 |
| 20260506094017 | 60 | 45 | 4.0 | 8.0 | 0.00 | 0.00 | 0.00 | 74 | 1010.2 |
| 20260506093016 | 60 | 23 | 4.0 | 8.0 | 0.00 | 0.00 | 0.00 | 74 | 1010.2 |
| 20260506092016 | 60 | 45 | 3.0 | 5.0 | 0.00 | 0.00 | 0.00 | 75 | 1009.9 |
| 20260506091016 | 60 | 23 | 3.0 | 5.0 | 0.00 | 0.00 | 0.00 | 75 | 1009.4 |
| 20260506090016 | 60 | 23 | 3.0 | 6.0 | 0.00 | 0.00 | 0.00 | 74 | 1009.7 |
| 20260506085016 | 61 | 23 | 4.0 | 6.0 | 0.00 | 0.00 | 0.00 | 73 | 1009.7 |
| 20260506084016 | 62 | 45 | 5.0 | 9.0 | 0.00 | 0.00 | 0.00 | 73 | 1009.5 |
| 20260506083017 | 62 | 23 | 3.0 | 5.0 | 0.00 | 0.00 | 0.00 | 73 | 1010.1 |
| 20260506082016 | 62 | 45 | 4.0 | 7.0 | 0.00 | 0.00 | 0.00 | 72 | 1009.8 |
| 20260506081016 | 63 | 45 | 4.0 | 7.0 | 0.00 | 0.00 | 0.00 | 72 | 1009.9 |
| 20260506073016 | 65 | 45 | 5.0 | 9.0 | 0.00 | 0.00 | 0.00 | 71 | 1009.8 |
| 20260506072016 | 65 | 68 | 5.0 | 9.0 | 0.00 | 0.00 | 0.00 | 71 | 1009.6 |
| 20260506071016 | 65 | 68 | 8.0 | 11.0 | 0.00 | 0.00 | 0.00 | 70 | 1009.9 |
| 20260506062020 | 68 | 68 | 6.0 | 11.0 | 0.00 | 0.00 | 0.00 | 65 | 1009.2 |
| 20260506061016 | 68 | 45 | 5.0 | 10.0 | 0.00 | 0.00 | 0.00 | 64 | 1008.9 |
| 20260506051016 | 72 | 23 | 3.0 | 4.0 | 0.00 | 0.00 | 0.00 | 47 | 1008.7 |
| 20260506045016 | 73 | 68 | 1.0 | 3.0 | 0.00 | 0.00 | 0.00 | 45 | 1008.5 |
| 20260506044016 | 72 | 68 | 4.0 | 6.0 | 0.00 | 0.00 | 0.00 | 46 | 1008.3 |
| 20260506043016 | 73 | 113 | 1.0 | 2.0 | 0.00 | 0.00 | 0.00 | 45 | 1008.2 |
| 20260506042016 | 73 | 135 | 1.0 | 2.0 | 0.00 | 0.00 | 0.00 | 48 | 1008.2 |
| 20260506041016 | 74 | 0.0 | 0.0 | 0.00 | 0.00 | 0.00 | 41 | 1008.1 | |
| 20260506040016 | 73 | 0.0 | 2.0 | 0.00 | 0.00 | 0.00 | 47 | 1008.2 | |
| 20260506035016 | 73 | 0.0 | 1.0 | 0.00 | 0.00 | 0.00 | 45 | 1007.9 | |
| 20260506034016 | 76 | 293 | 1.0 | 2.0 | 0.00 | 0.00 | 0.00 | 37 | 1007.9 |
| 20260506033016 | 77 | 0.0 | 0.0 | 0.00 | 0.00 | 0.00 | 33 | 1008.0 | |
| 20260506032016 | 77 | 0.0 | 0.0 | 0.00 | 0.00 | 0.00 | 32 | 1007.9 | |
| 20260506031016 | 78 | 0.0 | 0.0 | 0.00 | 0.00 | 0.00 | 31 | 1007.6 | |
| 20260506030016 | 79 | 0.0 | 0.0 | 0.00 | 0.00 | 0.00 | 30 | 1007.6 | |
| 20260506025016 | 80 | 0.0 | 2.0 | 0.00 | 0.00 | 0.00 | 29 | 1007.8 | |
| 20260506024017 | 79 | 0.0 | 0.0 | 0.00 | 0.00 | 0.00 | 30 | 1007.6 | |
| 20260506023016 | 80 | 0.0 | 0.0 | 0.00 | 0.00 | 0.00 | 30 | 1007.5 | |
| 20260506022016 | 81 | 0.0 | 0.0 | 0.00 | 0.00 | 0.00 | 29 | 1007.4 | |
| 20260506021016 | 81 | 0.0 | 0.0 | 0.00 | 0.00 | 0.00 | 27 | 1007.4 | |
| 20260506020017 | 82 | 0.0 | 0.0 | 0.00 | 0.00 | 0.00 | 27 | 1007.2 | |
| 20260506015016 | 82 | 0.0 | 2.0 | 0.00 | 0.00 | 0.00 | 26 | 1007.0 | |
| 20260506014017 | 83 | 0.0 | 2.0 | 0.00 | 0.00 | 0.00 | 25 | 1006.8 | |
| 20260506013016 | 84 | 293 | 1.0 | 2.0 | 0.00 | 0.00 | 0.00 | 25 | 1006.9 |
| 20260506012017 | 85 | 293 | 1.0 | 2.0 | 0.00 | 0.00 | 0.00 | 25 | 1006.5 |
| 20260506011017 | 85 | 270 | 1.0 | 4.0 | 0.00 | 0.00 | 0.00 | 27 | 1006.4 |
| 20260506010016 | 86 | 293 | 2.0 | 6.0 | 0.00 | 0.00 | 0.00 | 27 | 1006.5 |
| 20260506005016 | 87 | 270 | 8.0 | 15.0 | 0.00 | 0.00 | 0.00 | 26 | 1006.3 |
| 20260506004016 | 87 | 270 | 3.0 | 6.0 | 0.00 | 0.00 | 0.00 | 28 | 1006.1 |
| 20260506003017 | 88 | 248 | 3.0 | 4.0 | 0.00 | 0.00 | 0.00 | 27 | 1006.0 |
| 20260506002016 | 87 | 248 | 3.0 | 4.0 | 0.00 | 0.00 | 0.00 | 28 | 1006.0 |
| 20260506001016 | 87 | 270 | 3.0 | 6.0 | 0.00 | 0.00 | 0.00 | 28 | 1005.9 |
| 20260506000016 | 88 | 270 | 3.0 | 7.0 | 0.00 | 0.00 | 0.00 | 27 | 1006.0 |
| 20260505235016 | 89 | 248 | 4.0 | 7.0 | 0.00 | 0.00 | 0.00 | 25 | 1005.8 |
| 20260505234017 | 90 | 248 | 3.0 | 6.0 | 0.00 | 0.00 | 0.00 | 25 | 1005.9 |
| 20260505233016 | 90 | 270 | 2.0 | 4.0 | 0.00 | 0.00 | 0.00 | 25 | 1006.0 |
| 20260505232017 | 90 | 270 | 4.0 | 9.0 | 0.00 | 0.00 | 0.00 | 25 | 1006.0 |
| 20260505231017 | 90 | 270 | 5.0 | 10.0 | 0.00 | 0.00 | 0.00 | 24 | 1006.0 |
| 20260505230017 | 91 | 248 | 4.0 | 10.0 | 0.00 | 0.00 | 0.00 | 24 | 1006.0 |
| 20260505225017 | 91 | 270 | 6.0 | 11.0 | 0.00 | 0.00 | 0.00 | 23 | 1006.2 |
| 20260505224016 | 90 | 270 | 4.0 | 8.0 | 0.00 | 0.00 | 0.00 | 25 | 1006.3 |
| 20260505223017 | 91 | 270 | 5.0 | 9.0 | 0.00 | 0.00 | 0.00 | 24 | 1006.2 |
| 20260505222016 | 91 | 293 | 4.0 | 9.0 | 0.00 | 0.00 | 0.00 | 24 | 1006.3 |
| 20260505221016 | 91 | 270 | 6.0 | 10.0 | 0.00 | 0.00 | 0.00 | 23 | 1006.3 |
| 20260505220016 | 91 | 270 | 9.0 | 15.0 | 0.00 | 0.00 | 0.00 | 23 | 1006.4 |
| 20260505215016 | 92 | 248 | 7.0 | 10.0 | 0.00 | 0.00 | 0.00 | 23 | 1006.3 |
| 20260505214016 | 92 | 270 | 8.0 | 13.0 | 0.00 | 0.00 | 0.00 | 24 | 1006.3 |
| 20260505213017 | 92 | 270 | 5.0 | 10.0 | 0.00 | 0.00 | 0.00 | 24 | 1006.4 |
| 20260505212016 | 92 | 270 | 5.0 | 11.0 | 0.00 | 0.00 | 0.00 | 24 | 1006.5 |
| 20260505211016 | 93 | 270 | 6.0 | 12.0 | 0.00 | 0.00 | 0.00 | 27 | 1006.7 |
| 20260505210017 | 93 | 270 | 6.0 | 12.0 | 0.00 | 0.00 | 0.00 | 27 | 1006.8 |
| 20260505205016 | 92 | 270 | 6.0 | 12.0 | 0.00 | 0.00 | 0.00 | 27 | 1006.9 |
| 20260505204016 | 93 | 270 | 5.0 | 12.0 | 0.00 | 0.00 | 0.00 | 27 | 1007.0 |
| 20260505203016 | 92 | 293 | 6.0 | 14.0 | 0.00 | 0.00 | 0.00 | 27 | 1007.0 |
| 20260505202017 | 92 | 270 | 7.0 | 12.0 | 0.00 | 0.00 | 0.00 | 25 | 1007.0 |
| 20260505201016 | 91 | 270 | 7.0 | 13.0 | 0.00 | 0.00 | 0.00 | 26 | 1007.0 |
| 20260505200017 | 91 | 270 | 7.0 | 14.0 | 0.00 | 0.00 | 0.00 | 26 | 1007.2 |
| 20260505195016 | 91 | 270 | 6.0 | 14.0 | 0.00 | 0.00 | 0.00 | 27 | 1007.3 |
| 20260505194017 | 91 | 270 | 5.0 | 14.0 | 0.00 | 0.00 | 0.00 | 28 | 1007.4 |
| 20260505193017 | 91 | 293 | 3.0 | 10.0 | 0.00 | 0.00 | 0.00 | 31 | 1007.4 |
| 20260505192017 | 90 | 270 | 7.0 | 11.0 | 0.00 | 0.00 | 0.00 | 31 | 1007.4 |
| 20260505191016 | 89 | 270 | 6.0 | 13.0 | 0.00 | 0.00 | 0.00 | 32 | 1007.7 |
| 20260505190016 | 89 | 293 | 5.0 | 13.0 | 0.00 | 0.00 | 0.00 | 33 | 1007.7 |
| 20260505185016 | 90 | 270 | 6.0 | 12.0 | 0.00 | 0.00 | 0.00 | 34 | 1007.8 |
| 20260505184017 | 89 | 270 | 4.0 | 8.0 | 0.00 | 0.00 | 0.00 | 35 | 1007.9 |
| 20260505183017 | 89 | 293 | 5.0 | 11.0 | 0.00 | 0.00 | 0.00 | 38 | 1008.0 |
| 20260505182017 | 88 | 270 | 4.0 | 10.0 | 0.00 | 0.00 | 0.00 | 41 | 1008.2 |
| 20260505181020 | 88 | 248 | 3.0 | 7.0 | 0.00 | 0.00 | 0.00 | 45 | 1008.3 |
| 20260505180020 | 87 | 248 | 6.0 | 13.0 | 0.00 | 0.00 | 0.00 | 43 | 1008.4 |
| 20260505175020 | 86 | 270 | 5.0 | 10.0 | 0.00 | 0.00 | 0.00 | 45 | 1008.5 |
| 20260505174016 | 85 | 270 | 7.0 | 11.0 | 0.00 | 0.00 | 0.00 | 49 | 1008.6 |
| 20260505173017 | 84 | 270 | 5.0 | 9.0 | 0.00 | 0.00 | 0.00 | 52 | 1008.5 |
| 20260505172016 | 83 | 248 | 5.0 | 11.0 | 0.00 | 0.00 | 0.00 | 56 | 1008.6 |
| 20260505171016 | 82 | 248 | 5.0 | 11.0 | 0.00 | 0.00 | 0.00 | 57 | 1008.6 |
| 20260505170016 | 81 | 248 | 6.0 | 13.0 | 0.00 | 0.00 | 0.00 | 60 | 1008.5 |
| 20260505165016 | 81 | 248 | 6.0 | 11.0 | 0.00 | 0.00 | 0.00 | 63 | 1008.5 |
| 20260505164017 | 80 | 248 | 8.0 | 13.0 | 0.00 | 0.00 | 0.00 | 63 | 1008.5 |
| 20260505163016 | 80 | 270 | 7.0 | 13.0 | 0.00 | 0.00 | 0.00 | 64 | 1008.4 |
| 20260505162017 | 79 | 248 | 7.0 | 11.0 | 0.00 | 0.00 | 0.00 | 66 | 1008.4 |
| 20260505161016 | 78 | 248 | 8.0 | 15.0 | 0.00 | 0.00 | 0.00 | 69 | 1008.3 |